Weather History for Winchester, VA

Change the Weather History Date:

Wednesday, January 30, 2013

  Actual Average Record
Temperature  
Mean Temperature 60 °F -  
Max Temperature 69 °F 41 °F 69 °F (2013)
Min Temperature 50 °F 25 °F 1 °F (2014)
Degree Days  
Heating Degree Days 6    
Growing Degree Days 10 (Base 50)    
Moisture  
Dew Point 54 °F    
Average Humidity 92    
Maximum Humidity 100    
Minimum Humidity 68    
Precipitation  
Precipitation 1.03 in - - ()
Sea Level Pressure  
Sea Level Pressure 29.64 in    
Wind  
Wind Speed 6 mph (SSE)    
Max Wind Speed 16 mph    
Max Gust Speed 29 mph    
Visibility 7 miles    
Events Rain    
Averages and records for this station are not official NWS values.
T = Trace of Precipitation, MM = Missing Value Source: NWS Daily Summary

Daily Weather History Graph

Daily Weather History Graph

Search for Another Location

Airport:

Trip Planner

Search our weather history database for the weather conditions in past years. The results will help you decide how hot, cold, wet, or windy it might be!

Date:

Astronomy

Jan. 30, 2013 Rise Set
Actual Time 7:20 AM EST 5:31 PM EST
Civil Twilight 6:52 AM EST 5:59 PM EST
Nautical Twilight 6:20 AM EST 6:31 PM EST
Astronomical Twilight 5:48 AM EST 7:03 PM EST
Moon 9:25 PM EST (1/30) 8:49 AM EST (1/30)
Length of Visible Light 11h 07m
Length of Day
10h 10m
Waning Gibbous, 88% of the Moon is Illuminated
Jan 30
Waning Gibbous
Feb 3
Last Quarter
Feb 10
New
Feb 17
First Quarter
Feb 25
Full

Hourly Weather History & Observations

Time (EST) Temp. Dew Point Humidity Pressure Visibility Wind Dir Wind Speed Gust Speed Precip Events Conditions
12:15 AM 55.4 °F 50.0 °F 82% 29.93 in 10.0 mi South 5.8 mph - N/A   Clear
12:35 AM 53.6 °F 48.2 °F 82% 29.92 in 10.0 mi South 4.6 mph - N/A   Scattered Clouds
1:15 AM 53.6 °F 48.2 °F 82% 29.90 in 10.0 mi Calm Calm - N/A   Clear
1:35 AM 50.0 °F 46.4 °F 87% 29.88 in 10.0 mi South 3.5 mph - N/A   Clear
1:55 AM 51.8 °F 48.2 °F 88% 29.88 in 10.0 mi Calm Calm - N/A   Clear
2:15 AM 51.8 °F 48.2 °F 88% 29.87 in 10.0 mi South 5.8 mph - N/A   Clear
2:35 AM 53.6 °F 48.2 °F 82% 29.86 in 10.0 mi South 5.8 mph - N/A   Scattered Clouds
2:55 AM 53.6 °F 50.0 °F 88% 29.85 in 10.0 mi SSW 3.5 mph - N/A   Mostly Cloudy
3:15 AM 53.6 °F 50.0 °F 88% 29.85 in 10.0 mi SSW 4.6 mph - N/A   Scattered Clouds
3:35 AM 51.8 °F 48.2 °F 88% 29.84 in 10.0 mi SSW 3.5 mph - N/A   Clear
3:55 AM 50.0 °F 46.4 °F 87% 29.83 in 10.0 mi SW 3.5 mph - N/A   Clear
4:15 AM 50.0 °F 48.2 °F 94% 29.82 in 10.0 mi SSE 5.8 mph - N/A   Scattered Clouds
4:35 AM 50.0 °F 46.4 °F 87% 29.81 in 10.0 mi SSE 4.6 mph - N/A   Scattered Clouds
4:55 AM 51.8 °F 50.0 °F 94% 29.80 in 10.0 mi Calm Calm - N/A   Clear
5:15 AM 50.0 °F 48.2 °F 94% 29.78 in 10.0 mi Calm Calm - N/A   Clear
5:35 AM 50.0 °F 48.2 °F 94% 29.77 in 10.0 mi Calm Calm - N/A   Clear
5:55 AM 53.6 °F 51.8 °F 94% 29.76 in 10.0 mi South 5.8 mph - N/A   Clear
6:15 AM 55.4 °F 53.6 °F 94% 29.76 in 10.0 mi SSE 9.2 mph - N/A   Mostly Cloudy
6:35 AM 55.4 °F 53.6 °F 94% 29.77 in 10.0 mi South 8.1 mph - N/A   Mostly Cloudy
6:55 AM 55.4 °F 53.6 °F 94% 29.77 in 10.0 mi South 8.1 mph - N/A   Overcast
7:15 AM 55.4 °F 53.6 °F 94% 29.75 in 10.0 mi SSE 6.9 mph - N/A   Mostly Cloudy
7:35 AM 55.4 °F 53.6 °F 94% 29.73 in 10.0 mi SSE 10.4 mph - N/A   Scattered Clouds
7:55 AM 55.4 °F 53.6 °F 94% 29.72 in 10.0 mi SSE 9.2 mph - N/A   Clear
8:15 AM 59.0 °F 55.4 °F 88% 29.72 in 10.0 mi South 10.4 mph - N/A   Clear
8:35 AM 59.0 °F 55.4 °F 88% 29.72 in 10.0 mi South 6.9 mph - N/A   Scattered Clouds
8:55 AM 60.8 °F 55.4 °F 82% 29.70 in 10.0 mi South 10.4 mph - N/A   Scattered Clouds
9:15 AM 60.8 °F 55.4 °F 82% 29.70 in 10.0 mi South 11.5 mph - N/A   Scattered Clouds
9:35 AM 62.6 °F 57.2 °F 82% 29.69 in 10.0 mi South 4.6 mph - N/A   Mostly Cloudy
9:55 AM 62.6 °F 57.2 °F 82% 29.68 in 10.0 mi SSE 10.4 mph - N/A   Mostly Cloudy
10:15 AM 62.6 °F 59.0 °F 88% 29.67 in 10.0 mi South 13.8 mph 19.6 mph N/A   Mostly Cloudy
10:35 AM 62.6 °F 59.0 °F 88% 29.67 in 10.0 mi South 11.5 mph 19.6 mph N/A   Mostly Cloudy
10:55 AM 64.4 °F 59.0 °F 83% 29.67 in 10.0 mi South 11.5 mph 18.4 mph N/A   Overcast
11:15 AM 64.4 °F 59.0 °F 83% 29.64 in 10.0 mi South 11.5 mph 19.6 mph N/A   Overcast
11:35 AM 64.4 °F 59.0 °F 83% 29.62 in 10.0 mi South 16.1 mph 21.9 mph N/A   Mostly Cloudy
11:55 AM 64.4 °F 59.0 °F 83% 29.61 in 10.0 mi South 13.8 mph 18.4 mph N/A   Mostly Cloudy
12:15 PM 64.4 °F 59.0 °F 83% 29.58 in 10.0 mi South 13.8 mph 21.9 mph N/A   Scattered Clouds
12:35 PM 66.2 °F 59.0 °F 78% 29.57 in 10.0 mi South 13.8 mph 21.9 mph N/A   Mostly Cloudy
12:55 PM 69.8 °F 59.0 °F 68% 29.57 in 10.0 mi South 15.0 mph 28.8 mph N/A   Scattered Clouds
1:15 PM 68.0 °F 60.8 °F 78% 29.56 in 10.0 mi South 15.0 mph 26.5 mph N/A   Scattered Clouds
1:35 PM 68.0 °F 59.0 °F 73% 29.56 in 10.0 mi SSW 10.4 mph 17.3 mph N/A   Overcast
1:55 PM 59.0 °F 57.2 °F 94% 29.62 in 3.0 mi West 9.2 mph 19.6 mph 0.26 in Rain Heavy Rain
2:15 PM 59.0 °F 57.2 °F 94% 29.60 in 7.0 mi Calm Calm - 0.02 in Rain Rain
2:35 PM 59.0 °F 59.0 °F 100% 29.62 in 2.5 mi SE 5.8 mph - 0.07 in Rain Heavy Rain
2:55 PM 59.0 °F 59.0 °F 100% 29.61 in 4.0 mi SE 9.2 mph - 0.10 in Rain Rain
3:15 PM 57.2 °F 57.2 °F 100% 29.60 in 5.0 mi ESE 5.8 mph - 0.01 in Rain Rain
3:35 PM 57.2 °F 57.2 °F 100% 29.59 in 5.0 mi SE 6.9 mph - 0.03 in Rain Rain
3:55 PM 57.2 °F 57.2 °F 100% 29.58 in 5.0 mi SE 4.6 mph - 0.05 in Rain Light Rain
4:15 PM 55.4 °F 55.4 °F 100% 29.58 in 3.0 mi SSE 4.6 mph - 0.03 in Rain Rain
4:35 PM 55.4 °F 55.4 °F 100% 29.57 in 2.5 mi SSE 4.6 mph - 0.07 in Rain Heavy Rain
4:55 PM 55.4 °F 55.4 °F 100% 29.56 in 2.5 mi ESE 3.5 mph - 0.11 in Rain Rain
5:15 PM 55.4 °F 55.4 °F 100% 29.55 in 3.0 mi SE 3.5 mph - 0.05 in Rain Heavy Rain
5:35 PM 55.4 °F 55.4 °F 100% 29.55 in 2.0 mi SSE 4.6 mph - 0.10 in Rain Rain
5:55 PM 55.4 °F 55.4 °F 100% 29.54 in 5.0 mi SE 3.5 mph - 0.13 in Rain Rain
6:15 PM 55.4 °F 55.4 °F 100% 29.53 in 5.0 mi Calm Calm - 0.02 in Rain Rain
6:35 PM 55.4 °F 55.4 °F 100% 29.52 in 5.0 mi SE 4.6 mph - 0.05 in Rain Light Rain
6:55 PM 55.4 °F 55.4 °F 100% 29.50 in 4.0 mi ESE 4.6 mph - 0.07 in Rain Rain
7:15 PM 55.4 °F 55.4 °F 100% 29.50 in 7.0 mi SE 3.5 mph - 0.02 in Rain Rain
7:35 PM 53.6 °F 53.6 °F 100% 29.48 in 10.0 mi Calm Calm - 0.03 in Rain Light Rain
7:55 PM 53.6 °F 53.6 °F 100% 29.46 in 10.0 mi SE 4.6 mph - 0.04 in Rain Light Rain
8:15 PM 53.6 °F 53.6 °F 100% 29.45 in 4.0 mi South 4.6 mph - N/A Rain Light Rain
8:35 PM 53.6 °F 53.6 °F 100% 29.42 in 1.0 mi Calm Calm - 0.01 in Rain Rain
8:55 PM 53.6 °F 53.6 °F 100% 29.42 in 1.0 mi SSE 4.6 mph - 0.02 in Rain Light Rain
9:15 PM 53.6 °F 53.6 °F 100% 29.38 in 1.0 mi Calm Calm - 0.01 in Rain Light Rain
9:35 PM 53.6 °F 53.6 °F 100% 29.37 in 0.8 mi Calm Calm - 0.03 in Rain Rain
9:55 PM 51.8 °F 51.8 °F 100% 29.35 in 1.0 mi ESE 4.6 mph - 0.07 in Rain Rain
10:15 PM 53.6 °F 53.6 °F 100% 29.33 in 4.0 mi SE 3.5 mph - 0.02 in Rain Rain
10:35 PM 53.6 °F 53.6 °F 100% 29.32 in 4.0 mi SSE 3.5 mph - 0.05 in Rain Rain
10:55 PM 53.6 °F 53.6 °F 100% - 5.0 mi SE 3.5 mph - 0.10 in Rain Rain
11:15 PM 53.6 °F 53.6 °F 100% 29.29 in 5.0 mi Calm Calm - 0.02 in Rain Rain
11:35 PM 53.6 °F 53.6 °F 100% - 4.0 mi Calm Calm - 0.06 in Rain Rain
11:55 PM 53.6 °F 53.6 °F 100% 29.26 in 5.0 mi West 4.6 mph - 0.08 in Rain Rain